STARLINK-32617, 62076

Orbit data source: Space-Track

STARLINK-32617, 62076 is a payload satellite owned by SpaceX/Seattle (US) in LEO that was launched on Sun, 24 Nov 2024 UTC via an FALCON 9 launch vehicle from the Air Force Western Test Range (AFWTR). Payload-class satellites include a variety of spacecraft equipped with specific instruments for various scientific and technological missions. These include communications satellites like Starlink; space stations such as the ISS; scientific satellites like the Hubble; Earth observation satellites from companies like Planet Labs, Umbra, and HawkEye 360; GPS; miniature CubeSats for education and research; and military/defense satellites.

Loading next visibility...
Identifier
62076, 2024-217V
Orbit
LEO
Country
Flag of USUS
Related business
Manufacturer
SpaceX/Seattle
Mission
Operational Commercial Communications
Bus & Motor
STARLINK V2M, Unknown motor
Mass
730 kg wet, ~700 kg dry
Launch date (UTC)
2024-11-24 (1 year ago)
Launch vehicle
FALCON 9
Launch site
Air Force Western Test Range (AFWTR)
Object type
Payload
Rocket body
Debris
Shape & HBR
Box + 2 Pan, 17.7 m
Radar Cross Section
33.884 m², Large (>1 m²)

Expand to show TLE details & history
Last TLE update: 9 hours ago

TLE from 9 hours ago
0 STARLINK-32617
1 62076U 24217V   26095.27788741  .00046002  00000-0  15565-2 0  9999
2 62076  53.1605  57.5058 0001353  69.2184 290.8962 15.30184670 77673
Epoch: 2026-04-05T06:40Z
TLE epoch observation values (Epoch: 2026-04-05T06:40:09.472Z)
Latitude
0.00002°
Longitude
123.88074°
Altitude
475.83 km
Speed
7.629 km/s
True Right ascension
03h 50m 01s
True Declination
0° 00' 00"
Sunlit
Object was in daylight at epoch
Visualization orbit readout
Latitude
Unknown
Longitude
Unknown
Altitude
Unknown
Speed
Unknown
Apparent Right ascension
Unknown
Apparent Declination
Unknown
Sunlit
N/A
Visualization observer readout
Local Sidereal Time
21:53:46
Azimuth
Unknown
Elevation
Unknown
Doppler factor
Unknown
Orbital elements
Apogee altitude
476.444 km
Perigee altitude
474.59 km
Semi-major axis
6,853.654 km
Eccentricity
0.00014
Inclination
53.1605°
RAAN
57.5058°
Arg. of periapsis
69.2184°
True anomaly
290.88171°
Mean anomaly
290.8962°
Eccentric anomaly
290.88896°
Mean motion
3.82525 °/min
Orbital period
94.11 mins
BSTAR
0.0015565
Loading maneuver chart data...
Computing Atmospheric mass density...
Loading historical data...
Loading historical data...
Loading historical data...
Loading historical data...
Loading historical data...
Loading historical data...
Loading historical data...

Documentation

Showing up to 5 results
|